TSO423 ULLI-UHWW

Flight info

Callsign TSO423
Flight time N/A
Altitude 33000
Route RELNI T693 DISUP T821 ARGIP M58 RIGNI L168 TIRSA/K0900F350 L168 HAB/K0880F360 B355 BG G714 DAGES
Aircraft B744/H-SDE3FGHIM1M2RWXY/LB1

Departure

Time 2026-05-05 10:30
Airport Pulkovo Airport (ULLI)

Arrival

Time N/A
Airport Vladivostok International Airport (UHWW)
Time Latitude Longitude Altitude Speed Heading
2026-05-05 09:57 59.80305 30.26247 92 ft 0 kts 287°
2026-05-05 10:13 59.80303 30.26259 92 ft 2 kts 287°
2026-05-05 10:13 59.80298 30.26290 92 ft 2 kts 287°
2026-05-05 10:14 59.80293 30.26320 92 ft 2 kts 296°
2026-05-05 10:14 59.80285 30.26347 92 ft 2 kts 307°
2026-05-05 10:14 59.80274 30.26371 92 ft 2 kts 316°
2026-05-05 10:14 59.80262 30.26391 92 ft 2 kts 328°
2026-05-05 10:15 59.80248 30.26403 92 ft 2 kts 353°
2026-05-05 10:15 59.80235 30.26400 92 ft 1 kts 21°
2026-05-05 10:15 59.80228 30.26395 92 ft 0 kts 16°
2026-05-05 10:15 59.80238 30.26402 92 ft 2 kts 18°
2026-05-05 10:16 59.80243 30.26405 92 ft 1 kts 18°
2026-05-05 10:21 59.80251 30.26410 92 ft 2 kts 18°
2026-05-05 10:21 59.80278 30.26427 92 ft 6 kts 18°
2026-05-05 10:22 59.80327 30.26444 92 ft 9 kts
2026-05-05 10:22 59.80391 30.26462 92 ft 9 kts 14°
2026-05-05 10:22 59.80433 30.26546 92 ft 9 kts 77°
2026-05-05 10:22 59.80428 30.26665 92 ft 9 kts 104°
2026-05-05 10:23 59.80412 30.26777 92 ft 8 kts 105°
2026-05-05 10:23 59.80397 30.26883 92 ft 8 kts 106°
2026-05-05 10:23 59.80380 30.27000 92 ft 13 kts 106°
2026-05-05 10:23 59.80352 30.27176 92 ft 13 kts 108°
2026-05-05 10:24 59.80327 30.27343 92 ft 12 kts 106°
2026-05-05 10:24 59.80304 30.27505 92 ft 12 kts 106°
2026-05-05 10:24 59.80281 30.27660 92 ft 11 kts 107°
2026-05-05 10:24 59.80259 30.27807 92 ft 11 kts 107°
2026-05-05 10:25 59.80237 30.27950 92 ft 11 kts 107°
2026-05-05 10:25 59.80217 30.28087 92 ft 10 kts 107°
2026-05-05 10:25 59.80197 30.28218 92 ft 10 kts 107°
2026-05-05 10:25 59.80178 30.28344 92 ft 9 kts 107°
2026-05-05 10:26 59.80160 30.28464 92 ft 9 kts 107°
2026-05-05 10:26 59.80143 30.28580 92 ft 9 kts 107°
2026-05-05 10:26 59.80126 30.28696 92 ft 10 kts 107°
2026-05-05 10:26 59.80104 30.28842 92 ft 13 kts 107°
2026-05-05 10:27 59.80076 30.29030 92 ft 16 kts 107°
2026-05-05 10:27 59.80041 30.29258 92 ft 19 kts 107°
2026-05-05 10:27 59.80002 30.29522 92 ft 20 kts 107°
2026-05-05 10:27 59.79962 30.29786 92 ft 20 kts 106°
2026-05-05 10:28 59.79944 30.30029 92 ft 17 kts 64°
2026-05-05 10:28 59.80003 30.30156 92 ft 10 kts 47°
2026-05-05 10:28 59.80051 30.30256 92 ft 10 kts 43°
2026-05-05 10:28 59.80110 30.30272 92 ft 9 kts 323°
2026-05-05 10:29 59.80139 30.30160 92 ft 9 kts 287°
2026-05-05 10:29 59.80164 30.29991 92 ft 20 kts 286°
2026-05-05 10:29 59.80224 30.29579 92 ft 54 kts 285°
2026-05-05 10:29 59.80398 30.28408 92 ft 122 kts 286°
2026-05-05 10:30 59.80704 30.26392 113 ft 178 kts 286°
2026-05-05 10:30 59.81089 30.23914 648 ft 188 kts 285°
2026-05-05 10:30 59.81507 30.21569 1733 ft 177 kts 285°
2026-05-05 10:30 59.81893 30.19263 2373 ft 175 kts 284°
2026-05-05 10:31 59.82249 30.16905 2679 ft 182 kts 282°
2026-05-05 10:31 59.82580 30.14388 2846 ft 194 kts 281°
2026-05-05 10:31 59.82897 30.11715 3022 ft 203 kts 279°
2026-05-05 10:31 59.83236 30.08939 3247 ft 210 kts 282°
2026-05-05 10:32 59.83650 30.06121 3578 ft 213 kts 283°
2026-05-05 10:32 59.84081 30.03280 3968 ft 215 kts 283°
2026-05-05 10:32 59.84621 30.00500 4355 ft 221 kts 298°
2026-05-05 10:32 59.85818 29.98451 4582 ft 238 kts 329°
2026-05-05 10:33 59.87468 29.97907 4867 ft 252 kts 359°
2026-05-05 10:33 59.89159 29.99020 5159 ft 263 kts 21°
2026-05-05 10:33 59.90772 30.00754 5535 ft 264 kts 20°
2026-05-05 10:33 59.92324 30.02880 5762 ft 274 kts 43°
2026-05-05 10:34 59.93269 30.06104 6039 ft 275 kts 70°
2026-05-05 10:34 59.93494 30.09849 6347 ft 271 kts 92°
2026-05-05 10:34 59.93205 30.13541 6666 ft 269 kts 104°
2026-05-05 10:34 59.92638 30.17097 6958 ft 269 kts 114°
2026-05-05 10:35 59.91750 30.20331 7255 ft 266 kts 125°
2026-05-05 10:35 59.90852 30.23671 7372 ft 282 kts 119°
2026-05-05 10:35 59.90033 30.27318 7618 ft 291 kts 118°
2026-05-05 10:35 59.89252 30.31065 8079 ft 296 kts 114°
2026-05-05 10:36 59.88751 30.35095 8503 ft 304 kts 103°
2026-05-05 10:36 59.88519 30.39321 9004 ft 310 kts 97°
2026-05-05 10:36 59.88424 30.43623 9558 ft 313 kts 95°
2026-05-05 10:36 59.88357 30.48013 9934 ft 322 kts 95°
2026-05-05 10:37 59.88245 30.52584 10100 ft 338 kts 96°
2026-05-05 10:37 59.88095 30.57383 10265 ft 356 kts 96°
2026-05-05 10:37 59.87945 30.62362 10407 ft 375 kts 94°
2026-05-05 10:37 59.88265 30.67642 10517 ft 397 kts 75°
2026-05-05 10:38 59.89329 30.72870 10687 ft 416 kts 64°
2026-05-05 10:38 59.90724 30.77988 11225 ft 424 kts 59°
2026-05-05 10:38 59.92314 30.82986 11884 ft 428 kts 55°
2026-05-05 10:38 59.94008 30.87932 12474 ft 435 kts 53°
2026-05-05 10:39 59.95731 30.92965 13057 ft 441 kts 54°
2026-05-05 10:39 59.97464 30.98080 13624 ft 448 kts 53°
2026-05-05 10:39 59.99260 31.03242 14213 ft 454 kts 53°
2026-05-05 10:39 60.01035 31.08520 14745 ft 463 kts 54°
2026-05-05 10:40 60.02217 31.12116 15088 ft 466 kts 54°
2026-05-05 10:40 60.03986 31.17560 15785 ft 469 kts 55°
2026-05-05 10:40 60.05773 31.23083 16323 ft 475 kts 55°
2026-05-05 10:40 60.07579 31.28678 16937 ft 479 kts 55°
2026-05-05 10:41 60.09399 31.34326 17525 ft 484 kts 55°
2026-05-05 10:41 60.11232 31.40016 18062 ft 489 kts 55°
2026-05-05 10:41 60.13189 31.45592 18642 ft 488 kts 46°
2026-05-05 10:41 60.15709 31.50069 19195 ft 482 kts 31°
2026-05-05 10:42 60.21532 31.56815 20243 ft 483 kts 20°
2026-05-05 10:42 60.24559 31.59554 20767 ft 484 kts 17°
2026-05-05 10:42 60.27681 31.62148 21246 ft 487 kts 16°
2026-05-05 10:43 60.30832 31.64760 21772 ft 490 kts 17°
2026-05-05 10:43 60.33985 31.67436 22301 ft 492 kts 17°
2026-05-05 10:43 60.37156 31.70163 22754 ft 496 kts 17°
2026-05-05 10:43 60.40340 31.72918 23207 ft 500 kts 17°
2026-05-05 10:44 60.43514 31.75608 23653 ft 502 kts 16°
2026-05-05 10:44 60.46753 31.78352 24071 ft 506 kts 17°
2026-05-05 10:44 60.49999 31.81160 24516 ft 509 kts 17°
2026-05-05 10:44 60.53256 31.84012 24923 ft 512 kts 17°
2026-05-05 10:45 60.56534 31.86894 25303 ft 515 kts 17°
2026-05-05 10:45 60.59826 31.89797 25734 ft 517 kts 17°
2026-05-05 10:45 60.63148 31.92729 26090 ft 520 kts 17°
2026-05-05 10:45 60.66472 31.95668 26458 ft 522 kts 17°
2026-05-05 10:46 60.69877 31.98085 26833 ft 513 kts
2026-05-05 10:46 60.73385 31.99371 27085 ft 511 kts
2026-05-05 10:46 60.76928 32.00148 27404 ft 509 kts 356°
2026-05-05 10:46 60.80451 32.00471 27753 ft 507 kts 354°
2026-05-05 10:47 60.83986 32.00613 28057 ft 509 kts 354°
2026-05-05 10:47 60.87529 32.00836 28356 ft 511 kts 354°
2026-05-05 10:47 60.91092 32.01127 28658 ft 514 kts 355°
2026-05-05 10:47 60.94680 32.02444 28883 ft 531 kts 11°
2026-05-05 10:48 60.98052 32.05624 29420 ft 540 kts 25°
2026-05-05 10:48 61.01153 32.10085 29752 ft 546 kts 32°
2026-05-05 10:48 61.04053 32.15119 29893 ft 553 kts 37°
2026-05-05 10:48 61.06860 32.20596 30120 ft 557 kts 40°
2026-05-05 10:49 61.09590 32.26252 30511 ft 555 kts 41°
2026-05-05 10:49 61.12305 32.31886 30938 ft 552 kts 41°
2026-05-05 10:49 61.15067 32.37558 31158 ft 553 kts 40°
2026-05-05 10:49 61.17775 32.43100 31395 ft 554 kts 41°
2026-05-05 10:50 61.20515 32.48711 31704 ft 553 kts 41°
2026-05-05 10:50 61.23255 32.54326 31980 ft 553 kts 40°
2026-05-05 10:50 61.25995 32.59934 32293 ft 551 kts 41°
2026-05-05 10:50 61.28732 32.65501 32539 ft 550 kts 39°
2026-05-05 10:51 61.31527 32.70945 32607 ft 551 kts 39°
2026-05-05 10:51 61.37068 32.81992 32616 ft 551 kts 40°
2026-05-05 10:52 61.42580 32.93133 32614 ft 551 kts 40°
2026-05-05 10:52 61.48010 33.04461 32613 ft 552 kts 45°
2026-05-05 10:53 61.52832 33.16999 32612 ft 554 kts 50°
2026-05-05 10:53 61.57441 33.29895 32611 ft 555 kts 50°
2026-05-05 10:54 61.62126 33.42796 32611 ft 556 kts 50°
2026-05-05 10:54 61.66826 33.55720 32610 ft 556 kts 50°
2026-05-05 10:55 61.71626 33.68527 32611 ft 557 kts 49°
2026-05-05 10:55 61.76367 33.81428 32610 ft 557 kts 50°
2026-05-05 10:56 61.81043 33.94532 32610 ft 558 kts 50°
2026-05-05 10:56 61.85716 34.07664 32610 ft 558 kts 50°
2026-05-05 10:57 61.90882 34.19870 32613 ft 555 kts 39°
2026-05-05 10:57 61.96701 34.30422 32610 ft 551 kts 35°
2026-05-05 10:58 62.02642 34.40843 32610 ft 550 kts 36°
2026-05-05 10:58 62.08502 34.51375 32609 ft 552 kts 36°
2026-05-05 10:59 62.14329 34.61931 32608 ft 553 kts 36°
2026-05-05 10:59 62.20276 34.72372 32606 ft 553 kts 35°
2026-05-05 11:00 62.26137 34.83046 32605 ft 553 kts 36°
2026-05-05 11:00 62.31981 34.93832 32604 ft 554 kts 36°
2026-05-05 11:01 62.37824 35.04646 32601 ft 554 kts 36°
2026-05-05 11:01 62.43643 35.15574 32600 ft 555 kts 37°
2026-05-05 11:02 62.49424 35.26634 32597 ft 555 kts 37°
2026-05-05 11:02 62.55207 35.37755 32595 ft 555 kts 38°
2026-05-05 11:03 62.60981 35.48903 32592 ft 555 kts 38°
2026-05-05 11:03 62.66808 35.59935 32590 ft 555 kts 36°
2026-05-05 11:04 62.72615 35.71060 32586 ft 556 kts 38°
2026-05-05 11:04 62.78365 35.82362 32582 ft 556 kts 38°
2026-05-05 11:05 62.84116 35.93713 32580 ft 556 kts 38°
2026-05-05 11:05 62.89869 36.05059 32577 ft 556 kts 37°
2026-05-05 11:06 62.95620 36.16299 32573 ft 557 kts 38°
2026-05-05 11:06 63.01456 36.27537 32567 ft 558 kts 37°
2026-05-05 11:07 63.07243 36.38954 32561 ft 559 kts 38°
2026-05-05 11:07 63.13025 36.50505 32557 ft 560 kts 38°
2026-05-05 11:08 63.18800 36.62079 32550 ft 560 kts 38°
2026-05-05 11:08 63.24246 36.74513 32545 ft 563 kts 46°
2026-05-05 11:09 63.29191 36.88042 32538 ft 566 kts 48°
2026-05-05 11:09 63.34159 37.01678 32531 ft 566 kts 48°
2026-05-05 11:10 63.39104 37.15190 32525 ft 566 kts 48°
2026-05-05 11:10 63.44078 37.28822 32519 ft 566 kts 48°
2026-05-05 11:11 63.49033 37.42544 32512 ft 567 kts 48°
2026-05-05 11:11 63.54008 37.56432 32505 ft 568 kts 49°
2026-05-05 11:12 63.58909 37.70205 32498 ft 570 kts 49°
2026-05-05 11:12 63.63861 37.84145 32491 ft 570 kts 48°
2026-05-05 11:13 63.68901 37.97982 32485 ft 571 kts 48°
2026-05-05 11:13 63.73869 38.11974 32479 ft 571 kts 49°
2026-05-05 11:14 63.78804 38.26034 32474 ft 570 kts 49°
2026-05-05 11:14 63.83720 38.40141 32469 ft 570 kts 49°
2026-05-05 11:15 63.88664 38.54233 32464 ft 569 kts 48°
2026-05-05 11:15 63.93553 38.68354 32460 ft 568 kts 50°
2026-05-05 11:16 63.98342 38.82492 32456 ft 567 kts 50°
2026-05-05 11:16 64.03145 38.96731 32452 ft 566 kts 50°
2026-05-05 11:17 64.07941 39.10984 32450 ft 565 kts 50°
2026-05-05 11:17 64.12713 39.25281 32446 ft 564 kts 50°
2026-05-05 11:18 64.17556 39.39479 32443 ft 564 kts 50°
2026-05-05 11:18 64.22305 39.53805 32441 ft 564 kts 51°
2026-05-05 11:19 64.26992 39.68175 32439 ft 564 kts 51°
2026-05-05 11:19 64.31691 39.82623 32437 ft 563 kts 51°
2026-05-05 11:20 64.35591 39.94681 32436 ft 563 kts 51°
2026-05-05 11:20 64.40248 40.09254 32435 ft 563 kts 51°
2026-05-05 11:21 64.44991 40.23698 32434 ft 563 kts 51°
2026-05-05 11:21 64.49631 40.38360 32433 ft 563 kts 52°
2026-05-05 11:22 64.54231 40.53082 32433 ft 563 kts 52°
2026-05-05 11:22 64.58832 40.67835 32433 ft 563 kts 52°
2026-05-05 11:23 64.63851 40.81771 32433 ft 560 kts 45°
2026-05-05 11:23 64.69145 40.94953 32432 ft 559 kts 43°
2026-05-05 11:24 64.74483 41.08187 32433 ft 559 kts 45°
2026-05-05 11:24 64.79695 41.21724 32433 ft 559 kts 45°
2026-05-05 11:25 64.84897 41.35314 32434 ft 559 kts 45°
2026-05-05 11:25 64.90111 41.48958 32434 ft 559 kts 46°
2026-05-05 11:26 64.95279 41.62666 32434 ft 559 kts 46°
2026-05-05 11:26 65.00461 41.76380 32435 ft 559 kts 45°
2026-05-05 11:27 65.05642 41.90125 32436 ft 559 kts 46°
2026-05-05 11:27 65.10751 42.04037 32437 ft 559 kts 47°
2026-05-05 11:28 65.15854 42.18006 32437 ft 559 kts 47°
2026-05-05 11:28 65.20957 42.31982 32437 ft 559 kts 46°
2026-05-05 11:29 65.26181 42.45553 32439 ft 558 kts 46°
2026-05-05 11:29 65.31357 42.59364 32440 ft 558 kts 46°
2026-05-05 11:30 65.36501 42.73378 32442 ft 559 kts 49°
2026-05-05 11:30 65.41259 42.88129 32443 ft 560 kts 52°
2026-05-05 11:31 65.45942 43.03118 32443 ft 560 kts 52°
2026-05-05 11:31 65.50639 43.18091 32445 ft 560 kts 51°
2026-05-05 11:32 65.55328 43.33126 32447 ft 560 kts 52°
2026-05-05 11:32 65.59988 43.48242 32448 ft 561 kts 52°
2026-05-05 11:33 65.64643 43.63441 32449 ft 561 kts 52°
2026-05-05 11:33 65.69390 43.78341 32450 ft 561 kts 52°
2026-05-05 11:34 65.74019 43.93634 32452 ft 561 kts 53°
2026-05-05 11:34 65.78623 44.09020 32454 ft 561 kts 53°
2026-05-05 11:35 65.83223 44.24418 32456 ft 561 kts 53°
2026-05-05 11:35 65.87690 44.40063 32457 ft 561 kts 55°
2026-05-05 11:36 65.92047 44.55937 32459 ft 561 kts 55°
2026-05-05 11:36 65.96402 44.71769 32461 ft 560 kts 54°
2026-05-05 11:37 66.00902 44.87414 32464 ft 559 kts 54°
2026-05-05 11:37 66.05208 45.03280 32464 ft 556 kts 56°
2026-05-05 11:38 66.09469 45.19149 32466 ft 555 kts 56°
2026-05-05 11:38 66.13740 45.35070 32468 ft 556 kts 56°
2026-05-05 11:39 66.17955 45.50943 32470 ft 556 kts 56°
2026-05-05 11:39 66.22164 45.67001 32471 ft 555 kts 56°
2026-05-05 11:40 66.26354 45.83134 32474 ft 556 kts 56°
2026-05-05 11:40 66.30525 45.99326 32476 ft 556 kts 56°
2026-05-05 11:41 66.34731 46.15479 32478 ft 556 kts 54°
2026-05-05 11:41 66.38997 46.31552 32497 ft 555 kts 56°
2026-05-05 11:42 66.43142 46.47655 32501 ft 554 kts 56°
2026-05-05 11:42 66.47272 46.63909 32503 ft 553 kts 57°
2026-05-05 11:43 66.51366 46.80161 32504 ft 551 kts 57°
2026-05-05 11:43 66.55447 46.96481 32506 ft 550 kts 57°
2026-05-05 11:44 66.59531 47.12722 32509 ft 549 kts 56°
2026-05-05 11:44 66.63632 47.29109 32510 ft 549 kts 58°
2026-05-05 11:45 66.67589 47.45509 32512 ft 550 kts 58°
2026-05-05 11:45 66.71556 47.62032 32514 ft 550 kts 58°
2026-05-05 11:46 66.75456 47.78654 32516 ft 550 kts 61°
2026-05-05 11:46 66.78832 47.96020 32518 ft 549 kts 65°
2026-05-05 11:47 66.82010 48.13616 32519 ft 548 kts 65°
2026-05-05 11:47 66.85219 48.31191 32522 ft 548 kts 65°
2026-05-05 11:48 66.89984 48.57550 32525 ft 548 kts 65°
2026-05-05 11:48 66.93121 48.75274 32527 ft 548 kts 66°
2026-05-05 11:49 66.96228 48.93017 32530 ft 547 kts 66°
2026-05-05 11:49 66.99308 49.10790 32533 ft 547 kts 66°
2026-05-05 11:50 67.02454 49.28540 32534 ft 547 kts 64°
2026-05-05 11:50 67.05648 49.46228 32537 ft 547 kts 65°
2026-05-05 11:51 67.08742 49.64063 32541 ft 547 kts 66°
2026-05-05 11:51 67.11772 49.81798 32542 ft 546 kts 66°
2026-05-05 11:52 67.14802 49.99719 32545 ft 546 kts 66°
2026-05-05 11:52 67.17817 50.17715 32547 ft 547 kts 66°
2026-05-05 11:53 67.20914 50.35597 32550 ft 547 kts 66°
2026-05-05 11:53 67.23852 50.53713 32553 ft 547 kts 67°
2026-05-05 11:54 67.26754 50.71841 32555 ft 547 kts 68°
2026-05-05 11:54 67.29664 50.90049 32578 ft 546 kts 67°
2026-05-05 11:55 67.32606 51.08191 32633 ft 546 kts 66°
2026-05-05 11:55 67.35577 51.26373 32613 ft 548 kts 66°
2026-05-05 11:56 67.38684 51.44437 32540 ft 547 kts 66°
2026-05-05 11:56 67.41575 51.62588 32537 ft 547 kts 67°
2026-05-05 11:57 67.44457 51.80937 32538 ft 547 kts 67°
2026-05-05 11:57 67.47343 51.99326 32538 ft 548 kts 67°
2026-05-05 11:58 67.50148 52.17851 32538 ft 548 kts 68°
2026-05-05 11:58 67.52902 52.36419 32538 ft 548 kts 67°
2026-05-05 11:59 67.55780 52.54892 32539 ft 549 kts 68°
2026-05-05 11:59 67.58472 52.73651 32539 ft 549 kts 69°
2026-05-05 12:00 67.61139 52.92389 32540 ft 549 kts 69°
2026-05-05 12:00 67.63770 53.11071 32537 ft 549 kts 71°
2026-05-05 12:01 67.65572 53.27188 32540 ft 550 kts 75°
2026-05-05 12:01 67.67422 53.46677 32540 ft 549 kts 76°
2026-05-05 12:02 67.69264 53.66166 32541 ft 548 kts 76°
2026-05-05 12:02 67.71097 53.85642 32541 ft 549 kts 76°
2026-05-05 12:03 67.72961 54.05168 32542 ft 548 kts 74°
2026-05-05 12:03 67.75002 54.24574 32541 ft 549 kts 75°
2026-05-05 12:04 67.76909 54.43967 32542 ft 549 kts 75°
2026-05-05 12:04 67.78761 54.63559 32542 ft 550 kts 76°
2026-05-05 12:05 67.80583 54.83228 32542 ft 550 kts 76°
2026-05-05 12:05 67.82375 55.02910 32541 ft 551 kts 76°
2026-05-05 12:06 67.84148 55.22676 32542 ft 551 kts 76°
2026-05-05 12:06 67.85896 55.42474 32542 ft 550 kts 76°
2026-05-05 12:07 67.87618 55.62278 32543 ft 551 kts 76°
2026-05-05 12:07 67.89317 55.82114 32542 ft 551 kts 76°
2026-05-05 12:08 67.90989 56.01944 32543 ft 550 kts 76°
2026-05-05 12:08 67.92639 56.21828 32543 ft 550 kts 77°
2026-05-05 12:09 67.94263 56.41719 32603 ft 550 kts 77°
2026-05-05 12:09 67.95866 56.61665 32683 ft 552 kts 77°
2026-05-05 12:10 67.97450 56.81696 32696 ft 551 kts 77°
2026-05-05 12:10 67.98994 57.01587 32698 ft 551 kts 77°
2026-05-05 12:11 68.00520 57.21572 32696 ft 548 kts 77°
2026-05-05 12:11 68.02014 57.41467 32687 ft 548 kts 77°
2026-05-05 12:12 68.03493 57.61505 32690 ft 550 kts 77°
2026-05-05 12:12 68.04948 57.81574 32694 ft 550 kts 77°
2026-05-05 12:13 68.06377 58.01658 32697 ft 550 kts 78°
2026-05-05 12:13 68.07782 58.21751 32699 ft 550 kts 78°
2026-05-05 12:14 68.09165 58.41919 32704 ft 550 kts 78°
2026-05-05 12:14 68.10643 58.61997 32706 ft 549 kts 77°
2026-05-05 12:15 68.11950 58.82210 32710 ft 549 kts 79°
2026-05-05 12:15 68.13196 59.02319 32713 ft 550 kts 79°
2026-05-05 12:16 68.14450 59.22604 32715 ft 551 kts 78°
2026-05-05 12:16 68.15725 59.42918 32748 ft 551 kts 78°
2026-05-05 12:17 68.16990 59.63230 32752 ft 552 kts 78°
2026-05-05 12:17 68.18209 59.83605 32754 ft 552 kts 79°
2026-05-05 12:18 68.19382 60.03921 32757 ft 553 kts 79°
2026-05-05 12:18 68.20544 60.24379 32757 ft 552 kts 78°
2026-05-05 12:19 68.21931 60.44753 32760 ft 552 kts 78°
2026-05-05 12:19 68.23200 60.65125 32762 ft 551 kts 79°
2026-05-05 12:20 68.24378 60.85445 32763 ft 551 kts 79°
2026-05-05 12:20 68.25519 61.05872 32765 ft 551 kts 79°
2026-05-05 12:21 68.26634 61.26336 32765 ft 551 kts 80°
2026-05-05 12:21 68.27723 61.46883 32768 ft 553 kts 81°
2026-05-05 12:22 68.28785 61.67442 32771 ft 553 kts 81°
2026-05-05 12:22 68.29824 61.88081 32773 ft 554 kts 81°
2026-05-05 12:23 68.30831 62.08577 32774 ft 554 kts 81°